Вернуться в каталог

COSMOS 2251 DEB

АктивенLEO
NORAD 34637·DEBRIS·🇷🇺 Russia

Запущен Jun 16, 1993 с Plesetsk Cosmodrome

Loading…

Ближайшие Пролёты (ближайшие 24 часа)

TLE

СвежийSource: Space-Track

Эпоха: Sep 14, 2026, 13:14 UTC

1 34637U 93036XJ  26257.55149635  .00001653  00000-0  33026-3 0  9996
2 34637  74.0475 294.2440 0051533 292.4479 218.7600 14.61925872925556

Отслеживайте COSMOS 2251 DEB в реальном времени с AllMySat

Download on the App Store